DC論壇影城 ad.vbox
搜索的用戶組別: 遊客[0級]
搜索選項 要有附件 作者搜索
搜索範圍
Dedo 論壇搜索系統

汽機車機動世界

[ 13473 主題 / 6751 回復 ]

版塊介紹: 各車種,機車,飛機,輪船,火車等相關交流討論

版主: *空缺中*

此區嚴格取締非相關主題或討論主題,相關廣告.亂開主題,非討論區內容主題均有可能被扣除資源幣與供獻值,嚴重累犯者給予禁訪 發帖格式: [分享][主題][備注:介紹]
香港易存網庫 [服務器租用|easyhost.com.hk] 域名 電郵 VPN 網頁寄存 快速穩定 雲端 Hosting Server 電話:(852)-21550486 / (86)-21-61979257 服務:[ 資訊, 電郵服務, 資訊網絡, 網頁儲存, 網頁設計, 網站設計, 網頁寄存, 網站寄存, 主機租用, 主機托管, 伺服器管理, 伺服器租用, 伺服器托管, 服務器租用, 服務器托管, 香港服務器托管, 香港服務器租用, 域名註冊, 網站地圖, 客戶優惠, 報章報導, web hosting, hosting, email service, web page design, web design, dedicated server, dedicated host, server management, server colocation, colocation, Virtual Host, MPLS, CDN, IPLC ]
 類型 作者/時間 回復 查看 最後發表
版塊主題
  [分享]跟隨M550i的腳步,首款PHEV 5系列明年春季登陸美國 e48585 2016-12-20 0/21 e48585 2016-12-20 04:28
  [分享]VOLKSWAGE Tiguan Allspace確定登上明年底特律車展的舞台 e48585 2016-12-20 0/23 e48585 2016-12-20 04:20
  [分享]義大利警方採用ALFA ROMEO與JEEP的車款作為警用車 e48585 2016-12-19 0/27 e48585 2016-12-19 06:52
  [分享]全新小鋼炮預約2018年!VOLKSWAGEN將推「up!GTI」! e48585 2016-12-19 0/28 e48585 2016-12-19 06:34
  [分享]韓系油電SUV!KIA預告Niro PHEV純電續航力42km,明秋上市 e48585 2016-12-19 0/32 e48585 2016-12-19 06:16
  [分享]日系超跑對決!2017 ACURA NSX對上2016 NISSAN GT-R R35! e48585 2016-12-16 0/34 e48585 2016-12-16 06:22
  [分享]看準東方市場,DAIMLER計畫在中國生產電動車與電池! e48585 2016-12-16 0/26 e48585 2016-12-16 06:09
  [分享]不同於新的RSR廠車,下一代911仍採傳統RR配置,原因竟是... e48585 2016-12-16 0/30 e48585 2016-12-16 05:59
  [分享]台灣請再稍等!TOYOTA C-HR 萬祖國開賣! e48585 2016-12-16 0/33 e48585 2016-12-16 05:44
  [分享]是啟介的FD?MAZDA RX-7 FD3S專屬寬體套件上身! e48585 2016-12-15 0/34 e48585 2016-12-15 07:17
  [分享]大改款勢在必行!雷神之槌砸上身之全新世代VOLVO XC60現身倒數... e48585 2016-12-15 0/29 e48585 2016-12-15 07:07
  [分享]法拉利日本感謝祭!FERRARI J50參上! e48585 2016-12-15 0/28 e48585 2016-12-15 06:58
  [分享]跨世代商車新選!HYUNDAI Mighty EX8 短軸底盤車試駕體驗 e48585 2016-12-15 0/27 e48585 2016-12-15 06:47
  [分享]不讓APPLE專美於前,GOOGLE為自駕車成立獨立新品牌-WAYMO e48585 2016-12-15 0/27 e48585 2016-12-15 06:24
  [分享]買不下手?第一輛KOENIGSEGG One:1找不到車主! e48585 2016-12-14 0/26 e48585 2016-12-14 19:16
  [分享]完整布局 10 噸以下商車市場,HYUNDAI Mighty、HD35 車系正式在台發表 e48585 2016-12-14 0/18 e48585 2016-12-14 18:57
  [分享]FISKER EMotion電動超跑的屁股露出來了! e48585 2016-12-14 0/26 e48585 2016-12-14 07:21
  [分享]皮卡貨車史上第一!HONDA Ridgeline 獲 IIHS 進階安全首選評價 e48585 2016-12-14 0/18 e48585 2016-12-14 07:11
  [分享]2017年度十大最佳引擎公布,28年來V8引擎首次缺席榜單 e48585 2016-12-14 0/26 e48585 2016-12-14 07:02
  [分享]正在煩惱小孩的聖誕節禮物?550美金買輛Golf GTI兒童電動車吧! e48585 2016-12-14 0/22 e48585 2016-12-14 06:51
  [分享]大天使的氣息!ROLLS ROYCE Cullinan測試間諜照首曝光 e48585 2016-12-13 0/22 e48585 2016-12-13 07:33
  [分享]全套服務!PORSCHE 911 Turbo碳纖維上身! e48585 2016-12-13 0/28 e48585 2016-12-13 07:24
  [分享]就是要與眾不同!MASERATI化身黑天鵝! e48585 2016-12-13 0/27 e48585 2016-12-13 07:14
  [分享]這鯊硬梆梆!SUBARU Impreza奪2017年日本年度風雲車 e48585 2016-12-13 0/27 e48585 2016-12-13 07:03
  [分享]補完「E級拼圖」,MERCEDES-BENZ E-Class Coupe 前導預告釋出 e48585 2016-12-13 0/24 e48585 2016-12-13 06:51
  [分享]擴大戰力!BENTLEY Bentayga計畫推出至少三種車型! e48585 2016-12-12 0/25 e48585 2016-12-12 06:03
  [分享]行家一出手、便知有沒有!下壓力達到1000公斤的ELEMENTAL RP1 e48585 2016-12-12 0/27 e48585 2016-12-12 05:53
  [分享]2017底特律車展搶先報:同LC Coupe的新GA-L模組化平台!LEXUS即將發表全新一代LS e48585 2016-12-12 0/27 e48585 2016-12-12 05:44
  [分享]孤兒們只能望梅止渴?全新 OPEL Insignia 大戲還是要繼續上演! e48585 2016-12-12 0/28 e48585 2016-12-12 05:25
  [分享]月底上市!史上最豹力量! NEW JAGUAR F-TYPE SVR搶先亮相 e48585 2016-12-10 0/40 e48585 2016-12-10 05:42
  [分享]TOYOTA SIENTA 超時尚家庭移動百寶盒 e48585 2016-12-9 0/47 e48585 2016-12-9 17:28
  [分享]終於不用踩離合器?長豐獵豹Q6自排新車首度發售! e48585 2016-12-9 0/43 e48585 2016-12-9 06:40
  [分享]原形逐漸畢露,AM-RB 001極速402km/h! e48585 2016-12-9 0/37 e48585 2016-12-9 06:27
  [分享]穩坐「最速前驅車」王座!VOLKSWAGEN Golf GTI Clubsport再刷紐北紀錄! e48585 2016-12-9 0/35 e48585 2016-12-9 06:17
  [分享]避免網內互打,新一代MERCEDES-BENZ SL-Class可能改為四驅四座 e48585 2016-12-9 0/26 e48585 2016-12-9 06:04
  [分享]就算沒搶到第十萬輛,17 年式 MASERATI Quattroporte GranLusso 依然是台灣紳士的最愛 e48585 2016-12-9 0/26 e48585 2016-12-9 05:55
  [分享]不能出車就是損失!英國 VOLKSWAGEN 要用行動維修打動商用車隊的心 e48585 2016-12-8 0/33 e48585 2016-12-8 06:19
  [分享]美國十大最不可靠車款,包含TESLA在內之美國車佔九成 e48585 2016-12-8 0/37 e48585 2016-12-8 06:06
  [分享]VOLVO S90 試駕:北歐視角定義豪華價值(動態、科技篇) e48585 2016-12-8 0/34 e48585 2016-12-8 05:54
  [分享]狂暴山豬來囉!BUGATTI Chiron SS假想圖搶先看! e48585 2016-12-8 0/31 e48585 2016-12-8 05:40
  [分享]VOLVO S90 試駕:北歐視角定義豪華價值(座艙、介面篇) e48585 2016-12-7 0/29 e48585 2016-12-7 20:09
  [分享]CHEVROLET重返中型卡車市場!全新Low Cab Forward造福許多小企業 e48585 2016-12-7 0/34 e48585 2016-12-7 06:46
  [分享]回歸賽道本質?McLAREN 570S Track Pack減重更厲害! e48585 2016-12-7 0/29 e48585 2016-12-7 06:36
  [分享]雙動力五階車型,NISSAN Mcra / March 英國報價釋出 e48585 2016-12-7 0/31 e48585 2016-12-7 06:16
  [分享]前往歐陸!VOLKSWAGEN Atlas有望進軍歐洲市場! e48585 2016-12-7 0/30 e48585 2016-12-7 06:07
  [分享]2017年式KIA Soul和Carens即將於英國上市,即日起開放訂購 e48585 2016-12-7 0/30 e48585 2016-12-7 05:54
  [分享]回歸賽道本質?McLAREN 570S Track Pack減重更厲害! e48585 2016-12-6 0/26 e48585 2016-12-6 15:35
  [分享]超強續航力,繞台灣五圈不成問題!NIKOLA推出氫燃料拖車 e48585 2016-12-6 0/35 e48585 2016-12-6 06:16
  [分享]北美搶手貨!偏愛PORSCHE Macan 2.0渦輪增壓!? e48585 2016-12-6 0/34 e48585 2016-12-6 06:08
  [分享]2016廣州車展追蹤:林肯全新大陸LINCOLN Continental正式進軍中國高級車壇! e48585 2016-12-6 0/31 e48585 2016-12-6 05:53
  [分享]市售版依樣殺氣騰騰!BMW X2傳明年底開訂,M款有望 e48585 2016-12-6 0/28 e48585 2016-12-6 05:42
  [分享]大燈能「投影」還有「百萬畫素」!MERCEDES-BENZ 發表最新 uAFS 數位頭燈技術 e48585 2016-12-5 0/31 e48585 2016-12-5 18:52
  [分享]下一代M-BENZ CLS將於2018現身! e48585 2016-12-5 0/30 e48585 2016-12-5 18:43
  [分享]經典德製掀背車!AUDI A3[email protected]周年!《淺談AUDI A3系列》 e48585 2016-12-5 0/32 e48585 2016-12-5 18:33
  [分享]美國10大最可靠車款!TOYOTA集團奪下五成,AUDI次之 e48585 2016-12-5 0/28 e48585 2016-12-5 18:22
  [分享]更加經典更加完美 BENTLEY推出全新旗艦Mulsanne Extended Wheelbase e48585 2016-12-3 0/28 e48585 2016-12-3 05:36
  [分享]TOYOTA SIENTA 開創全新多功能用車定義 e48585 2016-12-3 0/27 e48585 2016-12-3 05:27
  [分享]2016年11月台灣新車市場報告:國產車市佔六成保衛戰漸趨慘烈! e48585 2016-12-2 0/39 e48585 2016-12-2 05:56
  [分享]2016女性全球風雲車大賞,JAGUAR F-PACE勇奪最大贏家 e48585 2016-12-2 0/37 e48585 2016-12-2 05:46
  [分享]C/D 2017年十大最佳車款!Accord回榜、MAZDA和CHEVY佔達半數 e48585 2016-12-2 0/41 e48585 2016-12-2 05:39